Weather History for Imperial Beach, CA

Change the Weather History Date:

Monday, May 13, 2013

  Actual Average Record
Temperature  
Mean Temperature 68 °F -  
Max Temperature 79 °F 64 °F 96 °F (2014)
Min Temperature 57 °F 56 °F 51 °F (2011)
Cooling Degree Days 3    
Growing Degree Days 18 (Base 50)    
Moisture  
Dew Point 59 °F    
Average Humidity 72    
Maximum Humidity 90    
Minimum Humidity 48    
Precipitation  
Precipitation 0.00 in - - ()
Sea Level Pressure  
Sea Level Pressure 29.93 in    
Wind  
Wind Speed 6 mph (WNW)    
Max Wind Speed 14 mph    
Max Gust Speed -    
Visibility 10 miles    
Events      
Averages and records for this station are not official NWS values.
T = Trace of Precipitation, MM = Missing Value Source: NWS Daily Summary

Daily Weather History Graph

Daily Weather History Graph

Search for Another Location

Airport:

Trip Planner

Search our weather history database for the weather conditions in past years. The results will help you decide how hot, cold, wet, or windy it might be!

Date:

Astronomy

May. 13, 2013 Rise Set
Actual Time 5:51 AM PDT 7:38 PM PDT
Civil Twilight 5:24 AM PDT 8:05 PM PDT
Nautical Twilight 4:51 AM PDT 8:38 PM PDT
Astronomical Twilight 4:17 AM PDT 9:13 PM PDT
Moon 8:42 AM PDT (5/13) 10:51 PM PDT (5/13)
Length of Visible Light 14h 41m
Length of Day
13h 47m
Waxing Crescent, 13% of the Moon is Illuminated
May 13
Waxing Crescent
May 17
First Quarter
May 24
Full
May 31
Last Quarter
Jun 8
New

Hourly Weather History & Observations

Time (PDT) Temp. Dew Point Humidity Pressure Visibility Wind Dir Wind Speed Gust Speed Precip Events Conditions
12:56 AM 66.0 °F 57.9 °F 75% 29.94 in 10.0 mi NNE 5.8 mph - N/A   Clear
1:56 AM 66.9 °F 54.0 °F 63% 29.92 in 10.0 mi North 5.8 mph - N/A   Clear
2:56 AM 59.0 °F 55.9 °F 90% 29.92 in 8.0 mi Calm Calm - N/A   Clear
3:56 AM 63.0 °F 53.1 °F 70% 29.91 in 9.0 mi NNE 3.5 mph - N/A   Clear
4:56 AM 64.9 °F 48.9 °F 56% 29.91 in 10.0 mi NE 6.9 mph - N/A   Clear
5:56 AM 57.9 °F 51.1 °F 78% 29.93 in 10.0 mi SW 3.5 mph - N/A   Clear
6:56 AM 63.0 °F 57.9 °F 84% 29.95 in 10.0 mi SSW 5.8 mph - N/A   Partly Cloudy
7:56 AM 68.0 °F 62.1 °F 81% 29.96 in 10.0 mi SSW 4.6 mph - N/A   Clear
8:56 AM 75.0 °F 61.0 °F 62% 29.96 in 9.0 mi WSW 4.6 mph - N/A   Clear
9:56 AM 77.0 °F 57.0 °F 50% 29.96 in 9.0 mi West 6.9 mph - N/A   Clear
10:56 AM 79.0 °F 57.9 °F 48% 29.96 in 10.0 mi West 8.1 mph - N/A   Clear
11:56 AM 75.0 °F 62.1 °F 64% 29.96 in 10.0 mi WNW 13.8 mph - N/A   Partly Cloudy
1:56 PM 75.0 °F 63.0 °F 66% 29.94 in 10.0 mi West 12.7 mph - N/A   Partly Cloudy
2:56 PM 75.0 °F 63.0 °F 66% 29.93 in 10.0 mi West 11.5 mph - N/A   Partly Cloudy
3:56 PM 75.0 °F 62.1 °F 64% 29.92 in 10.0 mi WNW 11.5 mph - N/A   Scattered Clouds
4:56 PM 73.9 °F 62.1 °F 66% 29.90 in 10.0 mi West 11.5 mph - N/A   Partly Cloudy
5:56 PM 72.0 °F 61.0 °F 68% 29.90 in 10.0 mi WNW 6.9 mph - N/A   Partly Cloudy
6:56 PM 70.0 °F 61.0 °F 73% 29.89 in 10.0 mi WNW 6.9 mph - N/A   Partly Cloudy
7:56 PM 68.0 °F 61.0 °F 78% 29.90 in 10.0 mi Calm Calm - N/A   Partly Cloudy
8:56 PM 64.9 °F 60.1 °F 84% 29.91 in 10.0 mi Calm Calm - N/A   Clear
9:56 PM 66.9 °F 62.1 °F 84% 29.93 in 9.0 mi NW 4.6 mph - N/A   Clear
10:56 PM 63.0 °F 60.1 °F 90% 29.94 in 8.0 mi Calm Calm - N/A   Clear
11:56 PM 63.0 °F 60.1 °F 90% 29.94 in 7.0 mi West 5.8 mph - N/A   Clear